Regional Weather Roundup
Issued by NWS Mobile, AL

Home | Current Version | Previous Version | Text Only | Print | Product List | Glossary On
Versions: 1 2 3 4 5 6 7 8 9 10 11 12 13 14 15 16 17 18 19 20 21 22 23 24 25 26 27 28 29 30 31 32 33 34 35 36 37 38 39 40 41 42 43 44 45 46 47 48 49 50
000
ASUS44 KMOB 251410
RWRMOB
REGIONAL WEATHER ROUNDUP
NATIONAL WEATHER SERVICE MOBILE AL
800 AM CST SUN JAN 25 2015

NOTE: "FAIR" INDICATES FEW OR NO CLOUDS BELOW 12,000 FEET WITH NO
      SIGNIFICANT WEATHER AND/OR OBSTRUCTIONS TO VISIBILITY.

  * THESE STATIONS ARE PART OF THE UNIVERSITY OF SOUTH ALABAMA
    MESONET AND ARE NOT UNDER NWS OR FAA QUALITY CONTROL.

ALZ061>064-251500-
COASTAL ALABAMA

CITY           SKY/WX    TMP DP  RH WIND       PRES   REMARKS
MOBILE REG APT MOSUNNY   42  39  89 SW9       30.03F
BROOKLEY FIELD SUNNY     45  40  82 SW6       30.06S
USA CAMPUS*    NOT AVBL
DOG RIVER*     NOT AVBL


CITY           SKY/WX    TMP DP  RH WIND       PRES   REMARKS
MOUNT VERNON*  NOT AVBL
SARALAND*      NOT AVBL
BAY MINETTE*   NOT AVBL
LOXLEY*        NOT AVBL
ROBERTSDALE*   NOT AVBL
FAIRHOPE*        N/A     43  43 100 S5        30.05R
ELBERTA*         N/A     39  39 100 S2        30.05R
FOLEY*         NOT AVBL
GRAND BAY*     NOT AVBL
DAUPHIN ISLND* NOT AVBL
BON SCOUR NWR* NOT AVBL
GULF SHORES    SUNNY     43  42  98 CALM      30.07R

$$

ALZ051>060-251500-
INTERIOR SOUTHWEST AND SOUTH CENTRAL ALABAMA

CITY           SKY/WX    TMP DP  RH WIND       PRES   REMARKS
GREENVILLE     SUNNY     37  33  85 CALM      29.98F
EVERGREEN      SUNNY     33  32  96 CALM      30.01F
CASTLEBERRY*   NOT AVBL
ATMORE*          N/A     39  37  93 S5        30.04F
DIXIE*           N/A     41  36  81 SW2       30.00S
ANDALUSIA/OPP  SUNNY     39  33  79 CALM      30.02F
ANDALUSIA*       N/A     41  36  81 CALM      30.01F
FLORALA APT    SUNNY     42  37  82 CALM      30.05R
FLORALA*         N/A     37  36  93 CALM      30.01R

$$

FLZ001>006-251500-
WESTERN FLORIDA PANHANDLE

CITY           SKY/WX    TMP DP  RH WIND       PRES   REMARKS
PENSACOLA      SUNNY     43  41  93 SW5       30.06R
NAS PENSACOLA  SUNNY     45  43  93 SW6       30.06R
MILTON         LGT RAIN  41  39  93 S3        30.04S
WHTNG S FIELD  SUNNY     42  39  89 S3        30.05R FOG


CITY           SKY/WX    TMP DP  RH WIND       PRES   REMARKS
WALNUT HILL*   NOT AVBL
JAY*           NOT AVBL
CRESTVIEW      SUNNY     35  34  96 CALM      30.06R
VALPARAISO     MOSUNNY   42  38  85 CALM      30.06R
DESTIN         SUNNY     51  43  74 CALM      30.06R

$$

MSZ076-079-251500-
INTERIOR SOUTHEAST MISSISSIPPI

CITY           SKY/WX    TMP DP  RH WIND       PRES   REMARKS
LEAKESVILLE*   NOT AVBL
AGRICOLA*      NOT AVBL

$$

MARINE OBSERVATIONS

STATION/POSITION TIME  TEMP    WIND        PRES    WAVE
                       AIR SEA DIR/SP/G            HT/PER
                 (UTC) (F)     (DEG/KT/KT) (MB)    (FT/S)
PASCAGOULA       1400   51     230/  6/  8 1017.1F
PETIT BOIS ISLND 1400   53     240/ 12/ 13 1018.1R
GRAND BAY        1300   43     270/  2     1018.0R
KATRINA CUT      1300   53     270/ 11     1018.6R
CEDAR POINT      1300   51     270/  9     1017.6R
E DAUPHIN ISLAND 1300   50     250/  5/  6 1017.2R
MIDDLE BAY LIGHT 1300   48     250/  9     1017.6R
USCG MOBILE BAY  1400   44 55  220/  4/  6 1016.2F
STATE DOCKS      1400   46 50              1016.8F
MEAHER PARK      1300   47     210/  2     1018.0R
WEEKS BAY        1300   38                   N/A
FORT MORGAN      1400   53     270/ 10/ 12 1017.5R
12 S ORANGE BCH  1400   56 65  260/ 10/ 12 1017.7R   3/ 5
PENSACOLA BAY    1400   47 57  230/  2/  5 1018.0R
64 S DAUPHIN ISL 1350   58 70  270/ 16/ 19 1018.7F   4/ 7

$$

SELECTED LOCATIONS ACROSS THE REGION

CITY           SKY/WX    TMP DP  RH WIND       PRES   REMARKS
NEW ORLEANS    MOSUNNY   47  43  86 S9        30.04F
GULFPORT       SUNNY     45  43  93 SW5       30.03F
PASCAGOULA AP  SUNNY     41  39  93 S5        30.04F FOG
PASCAGOULA*    NOT AVBL
HATTIESBURG    SUNNY     42  39  89 SW6       30.01S
LAUREL         SUNNY     39  36  87 CALM      30.00R
MERIDIAN       SUNNY     35  34  96 S7        29.96F WCI  29
JACKSON        SUNNY     39  37  92 S6        29.94F
MONTGOMERY     SUNNY     36  32  85 CALM      29.99F
TROY           SUNNY     34  32  92 CALM      30.02F
KINSTON*       NOT AVBL
GENEVA*        NOT AVBL
ASHFORD*         N/A     41  36  81 CALM      30.01F
DOTHAN         SUNNY     40  35  83 SW6       30.07R
PANAMA CITY    SUNNY     40  36  86 CALM      30.05S

$$



USA.gov is the U.S. government's official web portal to all federal, state and local government web resources and services.